Terminal Aerodrome Forecast
Issued by NWS Amarillo, TX

Home | Current Version | Previous Version | Text Only | Print | Product List | Glossary On
Versions: 1 2 3 4 5 6 7 8 9 10 11 12 13 14 15 16 17 18 19
766
FTUS44 KAMA 222327
TAFDHT
TAF
KDHT 222327Z 2300/2324 VRB06KT P6SM SCT300
     FM230800 24010KT P6SM BKN300
     FM231700 23023G35KT P6SM SCT300=

USA.gov is the U.S. government's official web portal to all federal, state and local government web resources and services.